Wind_Speed
118 123 123 114 111 107 105 104 104 100 99 95 89 87 85 84 74 72 69 71 71 65 64 59 57 57 53 52 50 46 44 43 41 41 43 40 41 43 42 39 42 44 41 40
119 124 117 120 115 112 109 108 107 107 104 97 91 89 87 84 76 76 71 66 65 67 60 59 61 60 59 57 55 51 47 48 46 45 46 47 46 47 47 46 43 46 48 47
121 113 121 127 121 118 111 109 107 107 108 103 95 92 90 82 79 75 73 71 66 65 67 64 64 65 63 59 57 55 54 51 49 48 47 49 50 50 50 48 47 48 47 49
127 123 123 125 128 121 114 110 110 110 108 103 100 93 90 83 77 74 72 71 73 68 62 60 62 63 64 65 60 60 54 52 52 52 53 54 52 53 50 50 50 51 52 52
121 123 127 130 127 129 119 115 113 114 113 107 102 97 88 85 79 71 74 75 76 71 68 62 60 62 64 61 62 62 61 62 60 60 56 56 56 56 55 54 56 57 55 57
121 125 120 120 126 128 121 117 116 118 117 112 99 97 87 86 79 78 76 74 73 72 70 67 63 62 63 62 57 54 57 59 59 61 62 58 59 58 58 60 61 61 60 57
118 125 118 114 125 133 127 124 121 121 121 109 103 103 80 84 80 80 79 77 74 72 73 73 69 68 66 63 61 57 54 57 60 60 60 65 64 61 63 61 63 63 59 56
127 127 129 118 118 129 127 122 122 121 120 106 108 103 85 81 83 82 79 77 75 72 71 73 72 67 64 65 64 61 62 61 61 63 64 67 64 63 64 65 63 59 59 59
127 126 130 121 119 121 126 128 118 123 122 116 112 95 93 85 82 87 84 81 78 75 71 69 66 64 63 62 65 66 67 68 67 65 62 65 64 68 67 61 61 61 62 62
129 131 137 131 120 119 125 125 132 131 125 118 110 96 89 87 80 85 88 82 82 80 76 74 71 67 62 60 59 62 64 64 66 67 68 69 67 65 65 65 65 64 64 61
126 139 140 139 124 117 120 123 131 134 131 125 113 100 92 90 86 84 88 89 86 83 81 77 75 72 67 64 64 63 62 63 64 65 67 67 65 66 65 65 65 64 65 66
119 129 144 141 138 127 127 126 131 137 134 126 117 103 95 93 91 86 87 88 90 86 84 80 78 76 73 72 70 68 67 66 67 66 65 65 64 64 64 65 66 67 69 69
118 126 135 143 144 144 132 132 129 131 133 132 124 103 102 99 96 94 94 92 90 90 88 87 85 84 81 78 75 74 70 68 66 65 65 66 67 68 68 68 68 70 70 71
114 120 128 133 135 143 143 136 133 135 136 127 126 109 103 100 99 99 98 98 95 93 91 89 88 87 85 84 82 80 80 77 76 74 73 74 74 74 73 73 74 74 75 77
117 118 121 120 129 135 141 145 144 142 138 139 125 119 105 106 105 105 103 102 99 96 94 94 93 92 90 89 86 84 83 83 82 81 80 79 78 78 78 79 80 80 82 85
117 113 117 118 122 128 134 136 137 139 136 135 130 125 109 110 111 108 103 103 103 101 99 98 98 98 96 95 94 92 89 88 86 86 85 84 84 85 87 87 89 89 89 90
117 117 117 115 119 127 136 128 127 129 131 131 133 123 109 118 114 111 112 110 108 107 106 104 102 102 102 100 99 98 96 93 92 90 89 90 90 91 92 92 92 92 93 94
113 118 120 114 119 130 122 124 129 130 125 127 128 124 119 115 120 120 118 115 112 111 111 110 109 106 106 106 104 102 100 98 96 94 94 94 95 96 97 97 97 96 97 99
111 117 119 117 120 124 123 117 119 123 119 120 121 120 117 119 122 122 118 118 115 116 117 117 115 114 112 109 106 103 101 100 99 99 99 100 100 100 100 101 101 101 103 104
110 115 122 118 116 120 108 108 110 118 113 105 106 107 109 113 129 120 121 127 127 124 123 123 125 123 119 113 111 107 106 104 103 104 105 103 104 104 104 104 104 106 105 107
107 114 118 114 115 109 98 104 111 112 82 84 97 100 108 116 119 120 129 135 135 132 129 128 127 125 121 119 116 112 110 107 110 110 109 109 109 108 108 108 109 109 110 111
97 103 107 109 113 101 97 102 102 90 91 89 101 98 103 111 115 120 123 133 134 134 135 132 129 126 125 124 120 116 114 115 114 113 114 114 113 113 111 115 114 112 114 114
80 89 93 97 98 96 96 96 95 89 86 90 91 96 102 102 101 107 114 121 125 131 135 135 133 132 130 127 123 121 120 120 119 118 118 117 117 118 118 119 116 116 118 118
66 75 79 83 76 81 81 79 78 78 81 83 89 92 92 89 93 97 102 107 115 117 120 126 130 132 132 130 127 125 124 125 124 122 121 121 122 122 122 121 121 121 122 121
64 69 69 68 64 64 64 61 66 67 68 73 80 86 87 84 84 88 92 97 100 104 106 107 113 122 128 130 128 128 128 127 127 126 125 125 126 127 125 124 124 126 126 125
65 67 68 63 58 59 59 61 64 63 63 64 68 69 72 80 80 83 88 91 91 93 96 98 102 106 113 116 118 124 126 126 126 126 124 126 126 124 124 125 126 126 124 121
Wind_Direction
214 215 214 214 217 215 215 217 220 222 224 227 229 229 233 237 239 243 244 244 245 246 243 243 245 250 252 256 258 259 263 266 270 267 265 267 271 267 273 277 283 284 276 279
214 216 213 215 217 216 216 216 220 222 224 226 228 229 233 235 238 242 243 244 244 242 241 245 247 249 253 254 255 256 260 267 269 265 262 263 267 271 270 277 280 283 277 278
213 214 215 215 217 218 215 216 220 223 225 225 228 229 232 233 237 242 245 245 246 243 245 245 249 252 255 258 255 259 263 263 264 263 260 264 266 272 274 276 276 279 282 278
214 216 217 215 215 217 216 216 221 225 227 227 227 229 233 236 234 239 244 247 247 244 247 246 247 253 254 256 258 261 260 258 263 260 260 262 263 268 274 277 276 278 279 282
213 214 219 217 216 215 213 218 220 224 227 227 226 226 231 234 236 237 239 244 251 252 254 249 250 250 253 259 260 259 259 259 258 255 259 261 263 273 275 275 276 276 282 283
212 212 220 219 221 215 215 213 218 221 226 226 226 226 226 232 233 236 240 241 244 251 253 255 251 252 251 253 258 257 257 258 256 257 257 263 267 272 275 278 277 276 279 281
215 214 217 219 220 216 215 215 219 221 224 223 226 226 219 230 232 236 239 243 245 247 252 254 253 253 254 256 258 257 254 257 257 257 258 263 267 273 276 277 278 280 280 277
214 215 216 218 223 219 216 215 218 222 224 224 225 225 219 230 232 235 238 241 244 245 250 255 257 257 255 256 254 254 257 257 260 260 261 265 268 273 278 280 279 273 278 281
215 215 216 217 221 222 221 216 217 222 223 223 222 223 220 224 232 236 237 239 242 245 246 250 257 258 258 256 254 255 259 258 261 262 263 269 271 274 275 276 275 277 280 282
215 215 215 217 216 218 221 217 218 222 222 223 222 220 219 225 229 237 238 238 240 243 245 247 250 255 257 257 254 255 256 257 259 261 263 266 271 272 278 275 277 278 281 281
218 217 217 218 217 219 223 219 219 222 223 223 222 217 222 224 227 233 239 240 240 243 246 248 250 254 256 256 257 257 257 257 259 261 264 267 267 270 270 272 275 277 280 282
221 220 219 222 219 220 222 220 220 221 224 224 221 216 221 224 228 229 235 239 241 242 244 246 248 250 252 254 255 258 260 261 262 263 263 264 265 266 269 271 275 279 281 284
221 222 220 222 223 222 219 222 221 221 225 224 222 212 218 224 227 229 232 235 239 243 244 245 247 248 249 252 254 257 257 258 260 262 262 264 265 267 270 273 276 279 280 281
221 223 223 223 224 226 224 223 224 223 224 225 225 214 219 222 227 229 232 235 236 240 243 244 246 247 249 252 253 254 256 258 260 260 262 263 265 268 270 273 275 276 278 280
222 222 223 223 223 226 226 226 227 229 229 229 227 222 215 222 225 228 230 235 236 237 240 244 245 245 247 249 251 253 255 257 260 261 262 264 266 268 271 273 274 275 277 280
222 222 226 224 224 225 227 227 228 229 230 230 228 227 215 223 226 228 231 233 237 239 240 242 244 249 250 250 251 252 252 253 256 259 261 263 266 268 271 272 273 275 278 280
222 221 224 224 226 226 226 228 230 229 229 230 229 227 217 222 226 228 232 232 236 240 243 243 244 247 249 249 251 253 254 255 256 258 262 264 267 268 269 270 273 275 278 280
222 223 226 224 229 229 229 229 229 232 231 231 230 228 224 224 226 229 231 234 236 239 242 244 245 245 247 250 252 253 256 258 260 262 264 265 266 267 269 272 274 276 278 280
224 226 227 228 229 232 231 231 233 234 233 236 236 235 234 230 228 228 231 235 237 238 239 241 243 245 247 249 252 254 257 259 260 261 262 264 265 268 270 273 274 277 279 281
227 228 231 231 231 234 233 235 236 237 235 236 240 240 242 241 236 227 231 233 235 235 237 239 242 244 247 250 251 253 255 257 258 259 261 264 265 268 270 272 275 277 280 282
229 231 233 235 237 235 234 236 238 240 241 239 241 240 240 241 240 229 230 233 234 236 238 240 242 247 249 250 252 254 255 257 258 261 263 264 265 268 270 273 274 275 278 280
232 234 236 237 240 239 240 240 242 242 238 236 238 235 238 240 238 236 234 235 235 236 238 240 243 244 247 249 251 252 254 255 258 259 261 264 266 268 271 271 273 275 276 280
232 236 238 237 239 240 240 243 244 243 241 240 237 241 240 241 242 242 241 241 241 241 241 242 243 244 245 248 250 251 254 256 257 259 261 263 265 267 270 271 273 275 276 279
227 231 234 236 236 238 238 239 240 240 239 239 239 240 241 241 243 244 244 244 244 245 246 246 246 247 247 248 250 252 254 256 258 260 262 264 265 268 269 270 272 274 275 278
228 230 231 232 228 231 229 227 227 227 229 234 239 240 242 241 242 245 245 246 246 246 248 249 251 250 249 250 252 254 254 256 258 261 264 265 267 268 270 271 272 273 275 277
228 228 231 232 225 224 222 220 217 222 225 231 235 239 242 240 238 241 244 248 249 249 250 250 251 251 250 251 253 254 255 256 258 260 262 263 265 266 268 269 270 272 274 275
Height
10570 10576 10597 10622 10642 10658 10675 10690 10698 10706 10714 10727 10747 10754 10756 10771 10787 10797 10805 10812 10817 10820 10825 10838 10839 10842 10845 10846 10849 10853 10856 10859 10860 10861 10862 10861 10860 10859 10859 10861 10861 10860 10858 10856
10546 10557 10594 10606 10619 10638 10653 10671 10682 10689 10695 10711 10727 10742 10742 10762 10776 10782 10790 10801 10805 10807 10818 10826 10827 10832 10833 10837 10840 10843 10847 10850 10852 10852 10853 10851 10851 10850 10851 10852 10852 10849 10848 10846
10530 10560 10567 10581 10598 10615 10637 10655 10667 10673 10679 10697 10713 10731 10735 10753 10766 10772 10781 10787 10794 10798 10805 10812 10817 10821 10825 10829 10831 10835 10840 10841 10840 10842 10841 10840 10840 10841 10840 10843 10842 10840 10838 10836
10510 10532 10542 10560 10574 10598 10622 10639 10649 10655 10660 10683 10701 10725 10731 10745 10759 10765 10769 10772 10776 10784 10793 10801 10806 10810 10813 10815 10822 10825 10828 10829 10830 10830 10829 10829 10829 10829 10831 10831 10830 10829 10827 10826
10508 10514 10520 10535 10565 10572 10599 10615 10628 10639 10645 10662 10686 10710 10728 10734 10751 10754 10753 10758 10764 10773 10782 10791 10794 10797 10800 10805 10807 10812 10817 10818 10818 10817 10817 10818 10818 10819 10821 10819 10818 10816 10816 10814
10478 10488 10495 10533 10537 10559 10580 10593 10609 10618 10625 10638 10682 10695 10717 10724 10739 10738 10740 10749 10755 10762 10768 10774 10779 10783 10785 10789 10794 10799 10802 10804 10806 10806 10806 10808 10807 10807 10808 10806 10805 10805 10805 10803
10473 10482 10498 10509 10519 10535 10555 10578 10591 10595 10603 10637 10661 10670 10728 10707 10725 10725 10729 10737 10744 10751 10753 10756 10762 10766 10772 10779 10781 10786 10789 10791 10793 10794 10796 10793 10795 10796 10794 10795 10793 10792 10790 10790
10438 10458 10478 10498 10512 10532 10551 10563 10574 10586 10598 10641 10640 10663 10715 10701 10710 10709 10717 10723 10732 10736 10738 10741 10747 10753 10759 10763 10768 10772 10775 10778 10780 10781 10782 10782 10782 10782 10781 10780 10779 10777 10777 10777
10433 10452 10465 10485 10497 10513 10530 10537 10571 10562 10578 10597 10618 10661 10685 10693 10691 10691 10701 10710 10715 10720 10726 10729 10733 10738 10743 10748 10754 10758 10761 10763 10764 10765 10769 10769 10768 10768 10769 10767 10764 10764 10762 10761
10415 10432 10450 10464 10471 10488 10503 10531 10529 10536 10557 10581 10613 10649 10676 10684 10680 10677 10689 10697 10697 10702 10711 10716 10721 10725 10730 10733 10739 10742 10745 10747 10749 10751 10752 10753 10753 10753 10753 10751 10748 10749 10749 10747
10399 10414 10432 10439 10452 10480 10489 10503 10517 10527 10540 10560 10597 10632 10653 10663 10669 10665 10667 10676 10683 10690 10697 10703 10710 10714 10718 10721 10723 10726 10729 10733 10735 10737 10739 10738 10738 10738 10737 10735 10734 10733 10733 10731
10387 10395 10414 10423 10446 10458 10466 10482 10489 10499 10522 10547 10573 10616 10637 10645 10653 10657 10649 10651 10663 10674 10682 10688 10694 10698 10700 10702 10707 10709 10713 10717 10718 10721 10724 10725 10725 10723 10724 10722 10721 10719 10717 10715
10361 10374 10391 10407 10417 10430 10444 10461 10477 10498 10503 10516 10547 10612 10607 10620 10633 10637 10629 10635 10643 10656 10666 10671 10675 10678 10682 10685 10690 10694 10697 10699 10703 10706 10709 10709 10709 10709 10710 10709 10708 10705 10703 10700
10340 10353 10367 10387 10406 10416 10435 10451 10465 10475 10479 10507 10524 10589 10593 10606 10611 10617 10618 10615 10623 10632 10643 10651 10657 10659 10663 10668 10672 10676 10681 10685 10688 10691 10692 10693 10693 10695 10694 10693 10692 10690 10687 10685
10313 10328 10342 10370 10380 10395 10411 10426 10439 10447 10471 10476 10521 10551 10586 10580 10586 10589 10596 10596 10603 10612 10623 10629 10633 10637 10643 10649 10654 10658 10662 10667 10671 10674 10676 10677 10679 10679 10678 10676 10675 10673 10670 10667
10302 10328 10332 10353 10366 10376 10383 10399 10417 10430 10452 10465 10498 10521 10578 10563 10564 10576 10587 10586 10586 10593 10599 10606 10612 10617 10623 10628 10635 10640 10645 10649 10655 10657 10659 10661 10662 10662 10661 10658 10655 10654 10652 10650
10293 10312 10318 10343 10345 10343 10350 10397 10414 10423 10436 10455 10471 10514 10551 10533 10549 10557 10559 10561 10571 10573 10577 10582 10590 10596 10603 10607 10613 10619 10626 10632 10634 10638 10642 10642 10642 10641 10639 10637 10636 10635 10634 10630
10285 10295 10298 10329 10318 10322 10373 10377 10390 10399 10424 10433 10454 10487 10513 10520 10524 10527 10539 10549 10560 10561 10558 10562 10564 10573 10577 10584 10592 10598 10608 10613 10618 10620 10621 10620 10619 10618 10617 10617 10617 10616 10613 10610
10270 10274 10281 10297 10313 10318 10343 10378 10387 10387 10409 10421 10429 10457 10481 10496 10498 10514 10534 10537 10541 10536 10534 10536 10539 10543 10549 10561 10573 10584 10591 10595 10598 10598 10597 10597 10597 10597 10597 10597 10597 10595 10593 10591
10253 10258 10256 10281 10295 10302 10352 10362 10366 10354 10374 10420 10432 10453 10466 10470 10445 10515 10512 10498 10491 10497 10506 10509 10508 10514 10527 10544 10550 10560 10567 10572 10576 10574 10575 10577 10577 10576 10576 10576 10576 10573 10572 10569
10235 10241 10247 10270 10275 10298 10344 10343 10335 10337 10410 10420 10398 10414 10418 10402 10431 10476 10453 10442 10461 10475 10484 10490 10493 10503 10516 10522 10531 10540 10546 10553 10548 10552 10553 10554 10553 10555 10555 10555 10552 10551 10548 10545
10221 10229 10240 10255 10253 10289 10323 10316 10319 10351 10357 10370 10364 10372 10369 10373 10391 10419 10433 10429 10440 10450 10457 10468 10476 10487 10493 10495 10509 10516 10523 10522 10526 10529 10529 10530 10531 10532 10532 10528 10528 10528 10524 10523
10214 10219 10229 10237 10253 10277 10288 10297 10305 10323 10335 10339 10349 10348 10354 10360 10387 10401 10404 10412 10424 10436 10442 10448 10456 10464 10468 10476 10486 10491 10494 10497 10500 10503 10505 10508 10507 10506 10505 10504 10505 10502 10498 10496
10199 10198 10211 10220 10255 10260 10269 10280 10291 10303 10311 10319 10327 10329 10334 10354 10362 10370 10378 10390 10399 10408 10418 10426 10434 10442 10449 10456 10463 10466 10466 10470 10473 10477 10480 10480 10479 10479 10479 10478 10478 10475 10471 10470
10186 10190 10203 10219 10233 10244 10255 10269 10275 10286 10295 10301 10306 10313 10323 10336 10341 10348 10355 10363 10376 10385 10394 10400 10408 10418 10423 10428 10436 10441 10442 10444 10448 10450 10452 10452 10451 10450 10451 10451 10449 10446 10445 10443
10179 10186 10194 10212 10224 10231 10241 10250 10261 10269 10279 10286 10291 10297 10306 10313 10320 10325 10332 10341 10352 10361 10366 10372 10378 10385 10391 10400 10408 10411 10413 10417 10422 10423 10423 10421 10422 10421 10421 10421 10419 10419 10418 10415